Regional Weather Roundup
Issued by NWS

Home | Current Version | Previous Version | Text Only | Print | Product List | Glossary On
Versions: 1 2 3 4 5 6 7 8 9 10 11 12 13 14 15 16 17 18 19 20 21 22 23 24 25 26 27 28 29 30 31 32 33 34 35 36 37 38 39 40 41 42 43 44 45 46 47 48 49 50
000
ASUS45 KREV 221610
RWRNV
NEVADA REGIONAL WEATHER ROUNDUP
NATIONAL WEATHER SERVICE RENO NV
900 AM PDT MON SEP 22 2014

NOTE: "FAIR" INDICATES FEW OR NO CLOUDS BELOW 12,000 FEET WITH NO
SIGNIFICANT WEATHER AND/OR OBSTRUCTIONS TO VISIBILITY.

NVZ001-003-004-221700-
WESTERN NEVADA

CITY           SKY/WX    TMP DP  RH WIND       PRES   REMARKS
RENO           SUNNY     59  43  55 CALM      30.18R
CARSON CITY    FAIR      57  39  51 CALM      30.20S
MINDEN         FAIR      57  39  51 CALM      30.21S
SLIDE MTN        N/A     50  37  62 E3          N/A
FALLON         SUNNY     67  45  45 S6        30.14S
LOVELOCK       SUNNY     60  49  66 CALM      30.14R
HAWTHORNE      SUNNY     63  43  48 CALM      30.18R
$$

NVZ002-CAZ072-073-221700-
NORTHERN AND CENTRAL SIERRA

CITY           SKY/WX    TMP DP  RH WIND       PRES   REMARKS
S. LAKE TAHOE  SUNNY     53  41  63 CALM      30.26R
SQUAW VLY 8000 NOT AVBL
BLUE CANYON    SUNNY     66  41  40 VRB3      30.22R HAZE
MAMMOTH LAKES  FAIR      54  41  62 CALM      30.32R
BRIDGEPORT     FAIR      47  34  60 CALM      30.28S
$$

NVZ030-031-036-221700-
NORTHERN NEVADA

CITY           SKY/WX    TMP DP  RH WIND       PRES   REMARKS
ELKO           SUNNY     57  44  62 CALM      30.20R
WINNEMUCCA     MOSUNNY   65  49  56 S10       30.15R
WENDOVER       SUNNY     59  52  77 E3        30.18R
$$

NVZ035-037-221700-
CENTRAL NEVADA

CITY           SKY/WX    TMP DP  RH WIND       PRES   REMARKS
ELY            SUNNY     56  49  77 CALM      30.27R
EUREKA           N/A     57  48  72 SW6       30.25R
$$

NVZ013-014-221700-
SOUTH CENTRAL NEVADA

CITY           SKY/WX    TMP DP  RH WIND       PRES   REMARKS
TONOPAH        SUNNY     63  45  51 NE8       30.24R
$$

NVZ017-020-022-221700-
SOUTHERN NEVADA

CITY           SKY/WX    TMP DP  RH WIND       PRES   REMARKS
LAS VEGAS      SUNNY     80  51  36 CALM      30.02R
N. LAS VEGAS   SUNNY     80  51  36 N5        30.05R
NELLIS AFB     SUNNY     79  56  45 CALM      30.04R
HENDERSON      SUNNY     81  51  35 VRB5      30.08R
MERCURY        SUNNY     75  49  39 CALM      30.10R
$$



USA.gov is the U.S. government's official web portal to all federal, state and local government web resources and services.